Temperature
-8 -8 -9 -9 -9 -9 -10 -11 -12 -12 -12 -12 -12 -11 -11 -11 -11 -11 -11 -10 -10 -10 -9 -8 -7 -6 -5 -4 -3 -2 -1 0 1 3 4 6 7 9
-8 -8 -8 -9 -9 -9 -10 -10 -11 -12 -13 -12 -12 -11 -11 -11 -11 -11 -11 -11 -10 -10 -9 -9 -8 -7 -6 -5 -4 -3 -2 -1 0 2 3 5 7 8
-7 -8 -8 -9 -9 -9 -10 -10 -11 -12 -13 -12 -12 -12 -11 -11 -10 -10 -10 -10 -10 -10 -10 -9 -8 -7 -6 -5 -4 -4 -3 -2 -1 1 2 4 6 7
-7 -8 -8 -9 -9 -9 -10 -10 -11 -12 -12 -13 -12 -12 -11 -11 -11 -11 -11 -11 -11 -11 -10 -10 -9 -8 -7 -6 -5 -4 -3 -2 -1 -0 1 3 5 6
-7 -8 -8 -9 -9 -9 -10 -10 -11 -11 -12 -12 -12 -12 -12 -11 -11 -11 -11 -11 -11 -11 -11 -10 -9 -8 -7 -6 -5 -4 -3 -2 -2 -0 1 2 4 6
-7 -8 -9 -9 -9 -9 -10 -10 -10 -11 -11 -11 -12 -12 -11 -11 -11 -12 -12 -12 -12 -11 -11 -10 -9 -8 -7 -6 -5 -4 -3 -3 -2 -1 0 2 3 5
-7 -8 -9 -9 -9 -9 -9 -9 -10 -10 -10 -11 -11 -11 -11 -11 -11 -12 -12 -12 -12 -12 -11 -10 -10 -9 -7 -6 -5 -4 -3 -3 -2 -1 0 1 3 4
-8 -8 -9 -9 -9 -9 -10 -10 -10 -10 -10 -10 -10 -11 -11 -11 -12 -12 -12 -12 -12 -12 -12 -11 -10 -9 -7 -6 -5 -4 -3 -3 -2 -1 -0 1 3 4
-8 -8 -9 -9 -9 -9 -9 -9 -9 -9 -10 -10 -10 -11 -11 -11 -11 -12 -12 -12 -12 -12 -12 -12 -10 -9 -7 -6 -5 -4 -4 -3 -2 -1 0 1 3 4
-7 -8 -9 -9 -9 -9 -9 -9 -9 -9 -10 -10 -11 -11 -11 -11 -11 -11 -11 -12 -12 -12 -12 -12 -10 -9 -7 -6 -5 -4 -3 -3 -2 -1 0 1 3 4
-7 -8 -9 -9 -9 -9 -9 -9 -9 -9 -9 -10 -11 -11 -11 -12 -12 -12 -12 -12 -12 -12 -12 -12 -11 -10 -7 -6 -5 -4 -3 -2 -1 -0 0 1 3 4
-7 -8 -9 -9 -9 -9 -9 -9 -9 -9 -10 -10 -11 -11 -12 -13 -13 -13 -13 -13 -13 -13 -12 -12 -11 -11 -8 -5 -4 -4 -3 -2 -1 -0 1 1 2 3
-8 -8 -8 -9 -9 -9 -9 -9 -10 -9 -10 -10 -11 -12 -12 -13 -13 -13 -13 -13 -13 -13 -12 -12 -12 -11 -10 -8 -4 -4 -3 -2 -1 -0 1 2 2 3
-8 -8 -9 -9 -9 -9 -10 -10 -10 -10 -10 -11 -11 -12 -12 -13 -13 -13 -13 -13 -13 -12 -12 -12 -12 -11 -11 -10 -6 -3 -3 -2 -1 -0 1 2 2 3
-8 -8 -9 -9 -9 -9 -9 -10 -10 -10 -11 -11 -12 -12 -12 -12 -12 -12 -12 -12 -12 -11 -11 -11 -11 -10 -10 -10 -7 -4 -3 -2 -1 -0 1 1 2 3
-7 -8 -8 -9 -9 -9 -10 -10 -10 -10 -11 -11 -12 -12 -12 -12 -12 -12 -12 -12 -11 -10 -10 -10 -9 -9 -9 -8 -7 -5 -3 -2 -1 -0 0 1 2 3
-8 -8 -8 -9 -9 -9 -9 -10 -10 -10 -11 -11 -11 -12 -12 -12 -12 -12 -12 -11 -11 -10 -9 -9 -9 -8 -8 -7 -7 -5 -3 -2 -1 -0 0 1 2 3
-8 -8 -8 -9 -9 -9 -10 -10 -10 -10 -11 -11 -11 -11 -12 -12 -11 -11 -11 -11 -10 -10 -9 -8 -8 -8 -8 -7 -6 -4 -3 -1 -1 -0 0 1 2 3
-8 -8 -8 -9 -9 -9 -10 -10 -10 -10 -11 -11 -11 -11 -11 -11 -11 -11 -11 -10 -10 -9 -8 -8 -7 -7 -7 -6 -4 -3 -2 -1 -1 0 1 1 2 4
-7 -8 -8 -9 -9 -9 -10 -10 -10 -10 -10 -11 -11 -11 -11 -11 -11 -11 -11 -10 -9 -8 -8 -7 -7 -6 -6 -5 -4 -3 -2 -1 -0 0 1 1 2 4
-7 -8 -8 -9 -9 -9 -9 -10 -10 -10 -10 -11 -11 -11 -11 -11 -11 -11 -10 -10 -9 -8 -7 -6 -6 -6 -5 -5 -4 -3 -2 -1 -0 0 1 2 2 3
-7 -7 -8 -8 -9 -9 -9 -10 -10 -10 -10 -10 -10 -11 -11 -11 -11 -10 -10 -10 -9 -8 -7 -6 -5 -5 -5 -4 -3 -3 -2 -1 -0 0 1 2 3 3
-7 -7 -8 -8 -9 -9 -9 -9 -10 -10 -10 -10 -10 -10 -10 -10 -10 -10 -10 -9 -9 -8 -7 -5 -4 -4 -4 -3 -3 -2 -2 -1 -0 0 1 2 3 4
Wind_Speed
10 11 10 10 10 10 12 12 14 19 20 11 6 7 12 17 23 22 22 28 33 34 33 31 30 29 28 26 24 22 21 19 17 15 17 18 19 19
9 10 11 10 10 11 12 12 13 16 19 11 10 10 11 17 24 23 22 31 32 32 31 30 29 29 28 26 25 23 21 20 19 18 19 20 20 19
11 11 14 12 11 11 12 13 13 14 18 17 13 12 13 15 16 18 20 20 22 29 30 30 30 29 28 26 26 24 23 21 21 20 20 21 21 20
12 12 14 12 13 13 12 14 14 14 16 20 16 13 15 14 14 14 14 17 16 26 30 30 29 28 27 26 25 24 24 22 22 22 22 22 22 20
13 13 14 14 15 13 14 14 13 14 14 17 18 15 13 12 13 14 14 12 16 21 25 26 27 27 26 26 25 25 24 23 23 23 22 23 22 21
14 14 15 15 15 15 15 15 15 15 15 16 16 16 14 11 10 12 12 10 12 13 18 21 24 25 24 24 25 25 25 24 24 24 23 23 22 21
14 14 15 17 20 18 15 13 13 13 13 14 15 14 13 11 10 10 13 12 11 11 12 12 11 10 12 18 22 24 25 25 25 25 24 23 22 20
13 12 12 15 19 24 27 26 23 17 15 14 14 14 14 13 11 12 13 13 13 6 8 11 9 11 11 10 19 25 26 26 26 25 25 24 22 20
10 10 11 11 17 11 20 26 24 27 25 18 16 16 16 13 14 16 14 14 14 9 9 14 10 12 11 14 24 25 26 26 26 26 25 23 21 19
9 10 11 11 13 15 15 16 14 14 18 14 13 15 15 15 15 15 15 14 13 11 10 12 10 11 12 11 21 25 25 26 26 26 25 23 20 18
9 10 11 11 19 24 18 14 11 11 18 21 21 21 24 24 19 11 9 10 12 9 6 7 8 9 10 12 14 21 24 25 26 26 25 22 19 17
8 9 15 15 21 24 15 11 12 13 11 10 13 16 14 16 20 11 7 9 10 7 4 5 5 5 5 5 5 7 11 19 24 25 24 22 19 12
8 6 7 17 21 22 19 10 16 17 8 8 10 10 9 8 8 8 8 8 10 9 6 3 4 4 5 5 5 5 5 7 10 14 20 22 20 14
7 6 8 18 20 20 16 17 23 18 9 10 11 11 10 9 8 8 10 10 11 12 10 8 7 6 6 7 6 6 6 5 7 8 9 15 17 18
6 11 14 17 17 12 15 19 16 9 10 10 11 11 9 9 9 9 8 9 10 12 13 14 13 10 10 9 7 6 5 4 4 5 8 10 10 9
7 9 12 13 11 12 12 11 8 9 10 9 11 10 10 9 8 8 8 7 7 7 9 13 14 14 12 13 11 11 8 6 4 4 5 7 8 9
5 2 2 4 5 6 7 8 7 8 9 9 10 10 11 10 10 8 7 6 6 6 6 5 9 12 13 11 10 11 10 10 9 7 5 7 8 10
4 2 3 4 6 7 8 9 9 9 9 10 10 10 10 10 10 9 8 7 7 7 6 5 4 5 7 11 17 13 11 10 8 7 5 6 8 8
3 3 4 4 5 6 7 8 9 9 9 9 9 10 10 10 10 10 9 8 7 7 7 6 5 6 7 6 8 20 13 9 7 6 6 6 7 8
3 4 4 4 5 6 7 8 9 9 8 8 9 9 9 9 10 10 9 9 9 8 7 6 6 8 8 5 4 5 19 12 8 7 5 5 5 5
4 4 4 4 5 6 6 7 8 9 9 9 9 9 9 9 9 9 10 13 11 8 8 8 7 11 8 5 6 6 7 17 14 7 5 5 5 6
5 4 4 4 4 5 6 7 8 8 8 8 8 9 8 8 9 11 10 10 9 9 10 9 9 7 6 8 9 8 6 6 13 17 13 8 5 8
5 5 4 4 4 4 5 7 8 8 8 7 8 8 9 9 9 9 10 10 10 10 10 9 7 4 6 8 9 8 7 7 6 7 9 14 16 11
Wind_Direction
246 248 250 257 255 254 256 257 269 287 291 288 279 256 271 279 284 288 286 293 297 300 302 302 300 299 297 296 295 292 293 296 300 301 299 299 299 297
247 250 253 257 258 259 258 258 256 264 279 282 280 278 277 284 287 289 289 292 296 298 296 295 295 295 294 292 292 290 287 289 292 293 292 294 297 300
252 252 257 258 261 263 262 261 259 259 271 281 279 279 275 277 281 280 280 281 284 289 292 292 292 289 288 287 287 286 284 283 285 286 287 288 291 296
256 256 260 263 262 264 265 264 263 261 265 277 280 278 274 274 274 273 280 281 280 286 288 288 287 286 284 281 280 281 281 279 279 278 279 281 283 290
254 256 260 262 265 265 264 265 265 264 262 268 276 277 276 273 273 275 273 273 278 283 287 288 286 285 281 279 276 275 275 274 273 271 271 274 277 281
253 255 257 258 262 265 265 262 262 262 263 265 271 275 275 270 268 276 282 276 278 282 283 283 282 282 280 277 274 271 270 269 268 267 264 265 268 272
255 253 255 261 265 273 277 271 263 263 267 267 271 276 278 278 276 278 282 284 277 272 274 274 275 274 277 278 274 270 266 264 263 261 259 258 260 263
258 258 258 269 278 284 288 290 288 283 282 278 280 281 281 277 278 277 279 281 283 255 258 271 269 272 269 262 263 262 259 257 257 256 252 252 253 257
255 263 271 271 285 281 285 288 287 285 285 285 284 282 281 278 275 273 268 266 268 263 269 277 272 271 270 265 264 257 252 250 249 250 248 246 247 250
252 256 263 268 274 282 277 279 272 269 274 279 274 276 277 276 268 266 267 268 267 263 257 269 271 269 272 265 264 255 248 243 241 242 242 241 241 243
256 258 263 265 282 292 296 294 286 281 291 293 294 296 299 300 298 291 280 276 277 275 251 257 272 280 275 265 256 250 243 239 237 236 235 235 235 236
265 261 275 284 293 300 303 300 298 296 293 288 292 295 294 292 295 290 279 275 275 278 245 242 263 282 288 268 257 250 241 236 232 230 230 230 227 226
271 268 269 293 300 305 312 307 299 308 313 300 296 293 288 280 275 264 251 249 253 251 252 263 270 275 287 305 305 280 250 235 227 225 225 223 221 214
265 270 278 297 306 313 315 307 311 322 317 306 303 304 303 298 288 274 260 248 242 246 245 236 246 252 274 290 288 303 296 251 222 213 207 214 218 214
262 280 294 306 315 315 308 312 321 318 306 305 306 306 302 294 292 286 273 260 252 245 244 237 238 242 243 252 268 289 306 292 256 219 204 202 201 199
277 285 298 309 312 308 311 315 312 304 308 306 306 305 305 303 301 296 291 286 277 264 242 232 230 228 235 240 249 262 266 279 291 260 224 208 198 196
248 239 281 304 308 310 309 309 310 313 313 309 308 311 313 313 311 307 292 287 274 277 278 248 229 224 227 231 239 248 254 258 261 263 234 211 203 199
250 240 281 293 300 307 312 314 316 315 315 314 313 314 314 314 312 310 303 294 288 284 277 267 245 220 218 235 230 242 246 251 255 248 239 213 205 200
226 236 261 279 292 300 305 308 311 311 310 310 312 313 315 315 314 313 312 305 296 288 280 265 242 225 225 237 229 213 223 234 238 237 226 216 206 201
199 229 251 268 285 296 303 307 309 312 312 312 313 313 315 316 316 315 313 308 304 300 293 271 242 231 228 243 265 226 209 218 224 224 217 215 212 204
214 227 241 259 279 291 299 305 307 309 311 312 313 315 317 317 315 315 313 312 312 302 297 288 264 258 253 251 255 244 221 214 218 216 198 189 187 187
212 223 237 252 271 285 296 303 307 309 312 312 313 315 317 317 316 316 316 314 309 302 295 290 280 261 223 223 235 240 232 215 220 231 238 227 188 186
207 216 230 250 266 281 291 299 304 307 309 312 315 317 319 321 319 317 316 314 313 311 310 306 300 264 234 229 237 241 232 218 205 206 225 233 234 235
Height
1465 1462 1459 1457 1454 1450 1446 1441 1434 1422 1411 1410 1407 1404 1402 1398 1394 1391 1386 1382 1379 1375 1371 1367 1365 1362 1361 1360 1359 1359 1360 1362 1365 1369 1375 1380 1385 1390
1457 1454 1452 1449 1445 1442 1437 1432 1427 1420 1407 1401 1399 1396 1393 1390 1387 1384 1380 1376 1372 1367 1364 1362 1359 1357 1356 1355 1354 1355 1355 1357 1360 1364 1369 1373 1378 1383
1450 1447 1443 1441 1437 1433 1429 1424 1419 1413 1403 1394 1393 1388 1385 1382 1379 1376 1372 1367 1362 1359 1356 1354 1352 1351 1350 1349 1349 1349 1350 1352 1355 1358 1362 1367 1372 1377
1441 1438 1435 1433 1429 1425 1420 1415 1410 1405 1398 1389 1384 1380 1377 1374 1370 1367 1363 1359 1355 1350 1348 1345 1343 1342 1342 1342 1342 1343 1345 1346 1349 1352 1356 1361 1366 1370
1433 1430 1427 1425 1420 1417 1412 1407 1401 1397 1391 1384 1376 1372 1368 1365 1362 1358 1354 1350 1346 1342 1339 1336 1334 1333 1333 1334 1335 1336 1338 1341 1344 1347 1350 1355 1359 1365
1425 1422 1420 1417 1412 1408 1403 1398 1393 1388 1383 1376 1369 1364 1360 1357 1354 1349 1345 1342 1337 1334 1330 1328 1325 1324 1324 1325 1327 1329 1331 1334 1337 1340 1344 1349 1354 1359
1417 1414 1412 1409 1405 1401 1397 1391 1386 1380 1375 1369 1362 1357 1353 1350 1346 1342 1337 1332 1328 1326 1322 1319 1317 1316 1315 1316 1318 1320 1324 1327 1330 1334 1338 1343 1348 1354
1409 1406 1404 1401 1398 1393 1389 1385 1381 1375 1368 1363 1356 1350 1345 1342 1338 1334 1330 1325 1320 1318 1316 1311 1310 1307 1307 1308 1309 1312 1315 1318 1322 1327 1332 1337 1342 1349
1402 1399 1396 1393 1390 1385 1380 1375 1371 1367 1363 1357 1349 1343 1337 1333 1329 1324 1321 1317 1313 1311 1310 1303 1302 1299 1299 1299 1301 1303 1307 1310 1315 1320 1325 1331 1337 1343
1395 1392 1389 1385 1382 1377 1372 1367 1362 1358 1353 1347 1341 1334 1329 1324 1320 1316 1312 1308 1305 1304 1303 1297 1294 1292 1291 1290 1292 1294 1298 1302 1307 1313 1318 1325 1331 1338
1388 1385 1382 1378 1374 1371 1367 1361 1355 1350 1345 1340 1334 1328 1322 1316 1312 1308 1304 1302 1298 1296 1295 1292 1288 1286 1284 1283 1285 1288 1291 1295 1300 1306 1312 1319 1326 1333
1381 1378 1376 1372 1369 1366 1362 1355 1349 1342 1337 1330 1325 1319 1313 1307 1303 1300 1297 1294 1292 1289 1287 1287 1284 1284 1281 1278 1280 1282 1285 1289 1294 1300 1306 1313 1320 1327
1374 1371 1369 1366 1363 1360 1356 1350 1344 1338 1331 1325 1318 1311 1305 1299 1295 1292 1289 1287 1285 1283 1283 1283 1281 1281 1280 1276 1276 1278 1280 1283 1288 1294 1300 1306 1314 1321
1368 1366 1363 1361 1358 1354 1350 1344 1340 1334 1327 1320 1313 1306 1299 1293 1288 1285 1282 1280 1278 1276 1276 1277 1276 1276 1276 1274 1272 1273 1276 1279 1283 1288 1294 1301 1308 1314
1363 1361 1359 1356 1352 1348 1344 1340 1335 1328 1322 1315 1309 1302 1295 1288 1282 1278 1275 1273 1271 1269 1269 1269 1269 1270 1271 1270 1269 1270 1272 1275 1279 1284 1289 1295 1301 1308
1358 1356 1354 1351 1348 1344 1340 1335 1330 1325 1319 1312 1305 1298 1290 1284 1278 1274 1270 1267 1264 1263 1263 1263 1263 1264 1265 1265 1266 1266 1268 1271 1275 1279 1284 1290 1296 1303
1352 1350 1349 1346 1343 1340 1336 1331 1326 1321 1315 1309 1302 1294 1287 1280 1275 1270 1266 1263 1260 1258 1257 1258 1258 1259 1260 1261 1261 1262 1264 1267 1270 1275 1280 1285 1290 1297
1348 1346 1344 1342 1339 1335 1331 1327 1323 1318 1312 1306 1299 1292 1285 1278 1272 1267 1263 1259 1256 1254 1253 1253 1254 1255 1256 1255 1256 1257 1259 1263 1267 1271 1275 1280 1285 1292
1343 1342 1340 1338 1336 1333 1329 1325 1320 1315 1310 1304 1297 1290 1283 1276 1270 1264 1260 1256 1252 1250 1249 1249 1249 1250 1251 1251 1251 1253 1255 1259 1262 1266 1270 1275 1280 1286
1338 1338 1336 1335 1332 1330 1326 1322 1318 1313 1308 1302 1295 1289 1282 1275 1269 1263 1258 1253 1249 1246 1245 1244 1244 1245 1245 1247 1248 1249 1251 1254 1258 1261 1266 1271 1277 1284
1334 1333 1333 1331 1329 1327 1324 1320 1316 1311 1306 1300 1294 1287 1281 1274 1267 1261 1256 1251 1247 1243 1241 1239 1239 1240 1241 1242 1243 1243 1246 1249 1252 1256 1262 1267 1272 1278
1330 1329 1329 1328 1326 1324 1322 1318 1314 1310 1304 1299 1293 1286 1280 1273 1266 1260 1254 1249 1244 1241 1237 1235 1234 1235 1235 1236 1236 1238 1241 1244 1247 1251 1257 1262 1266 1273
1326 1326 1325 1325 1324 1322 1319 1316 1312 1308 1303 1298 1292 1286 1279 1272 1266 1260 1254 1248 1243 1238 1234 1231 1230 1230 1230 1231 1232 1233 1235 1238 1242 1246 1251 1256 1262 1269